Location: *
(35.2348°S, 91.3916°E)
Time: 01:43:29
(UTC+00:00)

Cosmos 1697 Rocket - Pass Details

Date: 23 October 2019
Orbit: 833 x 843 km, 71.0° (Epoch: 22 November)

Event Time Altitude Azimuth Distance (km) Brightness Sun altitude
Rises 14:47:57 0° 201° (SSW) 3,417 6.8 -28.3°
Reaches altitude 10° 14:50:25 10° 200° (SSW) 2,478 5.9 -28.7°
Enters shadow 14:55:33 73° 186° (S) 887 2.8 -29.4°
